カタログに戻る

COSMOS 2094

運用中軍事PO
NORAD 20739·PAYLOAD·🇷🇺 Russia

打ち上げ Aug 8, 1990 から Plesetsk Cosmodrome

Loading…

次のパス (今後24時間)

TLE

最新Source: Space-Track

元期: Sep 14, 2026, 08:32 UTC

1 20739U 90070E   26257.35608256  .00000000  00000-0 -56536-4 0  9994
2 20739  82.5723 234.5990 0010301 244.3039 271.6255 12.64756563666496

AllMySatでCOSMOS 2094をリアルタイム追跡

Download on the App Store